Orange, MA

11:07 PM EDT on April 27, 2017 (GMT -0400)
Orange Municipal

Weather History for KORE - July, 2013

Change the Weather History Date:

Monday, July 1, 2013

  Actual Average Record
Temperature  
Mean Temperature 72 °F -  
Max Temperature 75 °F 79 °F 90 °F (2012)
Min Temperature 69 °F 55 °F 46 °F (2007)
Cooling Degree Days 7    
Growing Degree Days 22 (Base 50)    
Moisture  
Dew Point 70 °F    
Average Humidity 91    
Maximum Humidity 100    
Minimum Humidity 87    
Precipitation  
Precipitation 0.36 in - - ()
Sea Level Pressure  
Sea Level Pressure 30.00 in    
Wind  
Wind Speed 2 mph (SSE)    
Max Wind Speed 10 mph    
Max Gust Speed -    
Visibility 9 miles    
Events Rain , Thunderstorm    
Averages and records for this station are not official NWS values.
T = Trace of Precipitation, MM = Missing Value Source: NWS Daily Summary

Daily Weather History Graph

Daily Weather History Graph

Search for Another Location

Airport or City:

Trip Planner

Search our weather history database for the weather conditions in past years. The results will help you decide how hot, cold, wet, or windy it might be!

Date:

Astronomy

Jul. 01, 2013 Rise Set
Actual Time 5:15 AM EDT 8:30 PM EDT
Civil Twilight 4:40 AM EDT 9:05 PM EDT
Nautical Twilight 3:55 AM EDT 9:50 PM EDT
Astronomical Twilight 3:01 AM EDT 10:44 PM EDT
Moon 12:48 AM EDT (7/1) 2:38 PM EDT (7/1)
Length of Visible Light 16h 24m
Length of Day
15h 15m
Waning Crescent, 35% of the Moon is Illuminated
Jul 1
Waning Crescent
Jul 8
New
Jul 15
First Quarter
Jul 22
Full
Jul 29
Last Quarter

Hourly Weather History & Observations

Time (EDT) Temp. Dew Point Humidity Pressure Visibility Wind Dir Wind Speed Gust Speed Precip Events Conditions
12:52 AM 73.0 °F 69.1 °F 87% 29.94 in 10.0 mi South 3.5 mph - N/A   Overcast
1:52 AM 72.0 °F 69.1 °F 91% 29.95 in 10.0 mi South 4.6 mph - N/A   Overcast
2:28 AM 71.6 °F 69.8 °F 94% 29.95 in 10.0 mi Calm Calm - N/A   Overcast
2:47 AM 71.6 °F 69.8 °F 94% 29.95 in 10.0 mi SSE 4.6 mph - N/A   Overcast
2:52 AM 72.0 °F 69.1 °F 91% 29.94 in 10.0 mi South 4.6 mph - N/A   Mostly Cloudy
3:52 AM 70.0 °F 69.1 °F 97% 29.94 in 10.0 mi Calm Calm - N/A   Clear
4:12 AM 69.8 °F 69.8 °F 100% 29.95 in 10.0 mi Calm Calm - N/A   Mostly Cloudy
4:43 AM 69.8 °F 69.8 °F 100% 29.96 in 8.0 mi Calm Calm - N/A   Overcast
4:52 AM 70.0 °F 69.1 °F 97% 29.95 in 8.0 mi Calm Calm - N/A   Overcast
5:03 AM 69.8 °F 69.8 °F 100% 29.96 in 8.0 mi Calm Calm - N/A   Overcast
5:52 AM 71.1 °F 69.1 °F 93% 29.97 in 8.0 mi Calm Calm - N/A   Overcast
6:31 AM 71.6 °F 69.8 °F 94% 29.98 in 9.0 mi Calm Calm - N/A   Overcast
6:52 AM 72.0 °F 69.1 °F 91% 29.99 in 10.0 mi Calm Calm - N/A   Overcast
7:07 AM 71.6 °F 69.8 °F 94% 29.99 in 10.0 mi Calm Calm - N/A   Overcast
7:37 AM 73.4 °F 69.8 °F 88% 29.99 in 10.0 mi Calm Calm - N/A   Mostly Cloudy
7:52 AM 73.0 °F 69.1 °F 87% 29.99 in 10.0 mi Calm Calm - N/A   Overcast
8:11 AM 73.4 °F 69.8 °F 88% 30.00 in 10.0 mi Calm Calm - N/A   Overcast
8:42 AM 73.4 °F 69.8 °F 88% 30.00 in 10.0 mi Calm Calm - N/A   Overcast
8:50 AM 73.4 °F 69.8 °F 88% 30.00 in 10.0 mi SE 3.5 mph - N/A   Overcast
8:52 AM 73.9 °F 70.0 °F 87% 30.00 in 9.0 mi SSE 4.6 mph - N/A   Overcast
9:52 AM 73.9 °F 70.0 °F 87% 30.00 in 10.0 mi Calm Calm - 0.00 in   Overcast
10:04 AM 73.4 °F 69.8 °F 88% 30.01 in 10.0 mi SSE 3.5 mph - N/A   Overcast
10:30 AM 73.4 °F 69.8 °F 88% 30.01 in 10.0 mi Calm Calm - N/A   Overcast
10:52 AM 73.9 °F 70.0 °F 87% 30.01 in 10.0 mi Calm Calm - 0.01 in Rain Light Rain
11:29 AM 73.4 °F 69.8 °F 88% 30.02 in 5.0 mi Calm Calm - 0.02 in Rain Light Rain
11:52 AM 73.9 °F 71.1 °F 91% 30.01 in 7.0 mi Calm Calm - 0.06 in Rain Rain
12:00 PM 73.4 °F 71.6 °F 94% 30.01 in 8.0 mi Calm Calm - 0.01 in Rain Light Rain
12:23 PM 73.4 °F 71.6 °F 94% 30.01 in 8.0 mi Calm Calm - 0.04 in Rain Light Rain
12:39 PM 73.4 °F 71.6 °F 94% 30.02 in 5.0 mi Calm Calm - 0.09 in Rain , Thunderstorm Rain
12:52 PM 73.0 °F 71.1 °F 93% 30.01 in 4.0 mi Calm Calm - 0.15 in Rain Rain
1:52 PM 73.9 °F 72.0 °F 93% 30.00 in 10.0 mi ENE 3.5 mph - 0.12 in Rain Light Rain
2:03 PM 73.4 °F 71.6 °F 94% 30.01 in 10.0 mi Calm Calm - 0.00 in Rain Light Rain
2:52 PM 75.0 °F 71.1 °F 87% 30.00 in 10.0 mi SSE 4.6 mph - 0.00 in Rain Light Rain
3:19 PM 75.2 °F 71.6 °F 89% 30.01 in 10.0 mi ESE 3.5 mph - 0.00 in Rain Light Rain
3:52 PM 73.9 °F 71.1 °F 91% 30.01 in 10.0 mi SE 4.6 mph - 0.01 in Rain Light Rain
4:52 PM 75.0 °F 71.1 °F 87% 30.01 in 10.0 mi South 9.2 mph - 0.00 in   Mostly Cloudy
5:00 PM 75.2 °F 71.6 °F 89% 30.01 in 10.0 mi South 9.2 mph - N/A   Partly Cloudy
5:52 PM 75.0 °F 72.0 °F 90% 30.00 in 10.0 mi South 6.9 mph - 0.00 in   Mostly Cloudy
6:27 PM 75.2 °F 71.6 °F 89% 30.01 in 10.0 mi SSE 3.5 mph - 0.00 in Rain Light Rain
6:41 PM 75.2 °F 71.6 °F 89% 30.02 in 10.0 mi South 3.5 mph - 0.00 in   Mostly Cloudy
6:52 PM 75.0 °F 72.0 °F 90% 30.02 in 10.0 mi South 3.5 mph - 0.00 in   Mostly Cloudy
7:00 PM 75.2 °F 71.6 °F 89% 30.03 in 10.0 mi South 3.5 mph - N/A   Mostly Cloudy
7:52 PM 73.9 °F 72.0 °F 93% 30.03 in 10.0 mi SE 3.5 mph - 0.00 in   Overcast
8:52 PM 73.9 °F 71.1 °F 91% 30.04 in 10.0 mi South 5.8 mph - N/A   Overcast
8:58 PM 73.4 °F 71.6 °F 94% 30.05 in 10.0 mi Variable 4.6 mph - N/A   Mostly Cloudy
9:52 PM 73.0 °F 71.1 °F 93% 30.06 in 10.0 mi South 8.1 mph - 0.01 in Rain Light Rain
10:27 PM 73.4 °F 71.6 °F 94% 30.07 in 10.0 mi South 6.9 mph - 0.00 in Rain Light Rain
10:42 PM 73.4 °F 71.6 °F 94% 30.07 in 10.0 mi South 5.8 mph - 0.00 in Rain Light Rain
10:52 PM 73.0 °F 71.1 °F 93% 30.06 in 10.0 mi South 5.8 mph - 0.00 in   Overcast
11:05 PM 73.4 °F 69.8 °F 88% 30.07 in 10.0 mi South 8.1 mph - N/A   Overcast
11:52 PM 73.0 °F 69.1 °F 87% 30.06 in 10.0 mi South 10.4 mph - N/A   Overcast